Falls City, NE

1:46 PM CST on February 23, 2017 (GMT -0600)
Brenner

Weather History for KFNB - June, 2013

Change the Weather History Date:

Monday, June 3, 2013

  Actual Average Record
Temperature  
Mean Temperature 62 °F -  
Max Temperature 75 °F 80 °F 94 °F (1972)
Min Temperature 48 °F 55 °F 44 °F (1969)
Degree Days  
Heating Degree Days 4    
Growing Degree Days 12 (Base 50)    
Moisture  
Dew Point 50 °F    
Average Humidity 64    
Maximum Humidity 93    
Minimum Humidity 44    
Precipitation  
Precipitation 0.00 in - - ()
Sea Level Pressure  
Sea Level Pressure 29.96 in    
Wind  
Wind Speed 7 mph (SE)    
Max Wind Speed 18 mph    
Max Gust Speed 26 mph    
Visibility 10 miles    
Events      
Averages and records for this station are not official NWS values.
T = Trace of Precipitation, MM = Missing Value Source: NWS Daily Summary

Daily Weather History Graph

Daily Weather History Graph

Search for Another Location

Airport or City:

Trip Planner

Search our weather history database for the weather conditions in past years. The results will help you decide how hot, cold, wet, or windy it might be!

Date:

Astronomy

Jun. 03, 2013 Rise Set
Actual Time 5:54 AM CDT 8:47 PM CDT
Civil Twilight 5:22 AM CDT 9:19 PM CDT
Nautical Twilight 4:41 AM CDT 10:00 PM CDT
Astronomical Twilight 3:54 AM CDT 10:47 PM CDT
Moon 2:52 AM CDT (6/3) 4:18 PM CDT (6/3)
Length of Visible Light 15h 57m
Length of Day
14h 52m
Waning Crescent, 22% of the Moon is Illuminated
Jun 3
Waning Crescent
Jun 8
New
Jun 16
First Quarter
Jun 23
Full
Jun 29
Last Quarter

Hourly Weather History & Observations

Time (CDT) Temp. Dew Point Humidity Pressure Visibility Wind Dir Wind Speed Gust Speed Precip Events Conditions
12:53 AM 53.1 °F 46.9 °F 80% 30.04 in 10.0 mi SE 3.5 mph - N/A   Clear
1:53 AM 51.1 °F 46.0 °F 83% 30.04 in 10.0 mi Calm Calm - N/A   Clear
2:53 AM 51.1 °F 46.0 °F 83% 30.03 in 10.0 mi SE 3.5 mph - N/A   Clear
3:53 AM 48.9 °F 45.0 °F 86% 30.04 in 10.0 mi Calm Calm - N/A   Clear
4:53 AM 50.0 °F 45.0 °F 83% 30.06 in 10.0 mi Calm Calm - N/A   Clear
5:53 AM 48.0 °F 46.0 °F 93% 30.06 in 10.0 mi ESE 3.5 mph - N/A   Clear
6:53 AM 50.0 °F 46.9 °F 89% 30.06 in 10.0 mi Calm Calm - N/A   Clear
7:53 AM 55.0 °F 48.9 °F 80% 30.04 in 10.0 mi SE 5.8 mph - N/A   Clear
8:53 AM 60.1 °F 50.0 °F 69% 30.04 in 10.0 mi SSE 10.4 mph - N/A   Clear
9:53 AM 63.0 °F 48.9 °F 60% 30.02 in 10.0 mi SSE 13.8 mph 21.9 mph N/A   Clear
10:53 AM 66.0 °F 48.9 °F 54% 30.00 in 10.0 mi SE 15.0 mph 21.9 mph N/A   Clear
11:53 AM 66.9 °F 48.9 °F 52% 29.99 in 10.0 mi SE 15.0 mph 20.7 mph N/A   Clear
12:53 PM 70.0 °F 50.0 °F 49% 29.96 in 10.0 mi SE 17.3 mph 21.9 mph N/A   Clear
1:53 PM 71.1 °F 50.0 °F 47% 29.93 in 10.0 mi SSE 16.1 mph 24.2 mph N/A   Clear
2:53 PM 73.0 °F 51.1 °F 46% 29.90 in 10.0 mi SSE 17.3 mph 24.2 mph N/A   Clear
3:53 PM 73.9 °F 52.0 °F 46% 29.89 in 10.0 mi SSE 18.4 mph 24.2 mph N/A   Clear
4:53 PM 75.0 °F 52.0 °F 44% 29.86 in 10.0 mi SSE 16.1 mph 26.5 mph N/A   Clear
5:53 PM 75.0 °F 53.1 °F 46% 29.85 in 10.0 mi SSE 17.3 mph 23.0 mph N/A   Clear
6:53 PM 73.9 °F 53.1 °F 48% 29.84 in 10.0 mi SSE 13.8 mph - N/A   Clear
7:53 PM 72.0 °F 52.0 °F 49% 29.84 in 10.0 mi SSE 15.0 mph 23.0 mph N/A   Clear
8:53 PM 68.0 °F 53.1 °F 59% 29.87 in 10.0 mi SE 8.1 mph - N/A   Clear
9:53 PM 66.9 °F 53.1 °F 61% 29.87 in 10.0 mi SE 10.4 mph - N/A   Clear
10:53 PM 64.9 °F 54.0 °F 68% 29.88 in 10.0 mi SE 9.2 mph - N/A   Clear
11:53 PM 64.0 °F 54.0 °F 70% 29.89 in 10.0 mi SE 11.5 mph - N/A   Clear